Weather in Dobromino

Russia / Smolensk Oblast     54˚41′55″N   32˚42′16″E
temp.,
°C
wind,
m/s
gust,
m/s
humid.,
%
clouds,
%
prec.,
mm/h
press.,
hPa
HPBL,
m
17 january, sun
sun1700:00−15˚nw3693100 0.9 1013494
03:00−17˚nnw3794100 0.9 1014411
06:00−19˚n2796100 0.0 1014300
09:00−21˚n2397100 0.0 101678
12:00−19˚nne139171 0.0 1018265
15:00−17˚nne249180 0.0 1018305
18:00−20˚nne229734 0.0 101932
21:00−22˚ne129817 0.0 102020
18 january, mon
mon1800:00−22˚nne129816 0.0 102020
03:00−23˚ese119812 0.0 102120
06:00−23˚nnw119827 0.0 102020
09:00−22˚nnw129749 0.0 102120
12:00−17˚e018925 0.0 1020157
15:00−16˚ssw119043 0.0 1020213
18:00−18˚nw229797 0.0 101925
21:00−18˚w119799 0.0 101920
19 january, tue
tue1900:00−16˚wsw1197100 0.1 101932
03:00−16˚wnw1297100 0.1 101927
06:00−15˚wnw1197100 0.1 101825
09:00−15˚nw1197100 0.2 101822
12:00−12˚nw129199 0.1 1018235
15:00−11˚nw1291100 0.1 1018251
18:00−15˚nw119788 0.0 101820
21:00−16˚wnw119881 0.1 101920
20 january, wed
wed2000:00−17˚wnw119872 0.0 102020
03:00−17˚wsw119864 0.0 102120
06:00−17˚sw119862 0.0 102220
09:00−18˚ssw129750 0.0 102320
12:00−13˚s239225 0.0 1023164
15:00−12˚s249133 0.0 1022248
18:00−15˚s259619 0.0 102393
21:00−15˚s389510 0.0 1022178
21 january, thu
thu2100:00−14˚s4119228 0.0 1022262
03:00−14˚s4129243 0.0 1020299
06:00−12˚s5139297 0.0 1018361
09:00−10˚s5139398 0.3 1017455
12:00−8˚ssw51292100 0.4 1016463
15:00−6˚ssw51094100 1.1 1014478
18:00−4˚ssw41194100 0.3 1014449
21:00−2˚ssw51195100 0.5 1013487